Weather History for La Paz, B. C. S., Mexico

Change the Weather History Date:

Tuesday, March 25, 2014

  Actual Average Record
Temperature  
Mean Temperature 80 °F -  
Max Temperature 98 °F 84 °F - ()
Min Temperature 63 °F 56 °F - ()
Cooling Degree Days 16    
Growing Degree Days 30 (Base 50)    
Moisture  
Dew Point 41 °F    
Average Humidity 28    
Maximum Humidity 63    
Minimum Humidity 6    
Precipitation  
Precipitation 0.00 in - - ()
Sea Level Pressure  
Sea Level Pressure 29.88 in    
Wind  
Wind Speed 7 mph ()    
Max Wind Speed 14 mph    
Max Gust Speed -    
Visibility 9.9 miles    
Events      
T = Trace of Precipitation, MM = Missing Value Source: Averaged Metar Reports

Daily Weather History Graph

Daily Weather History Graph

Search for Another Location

Airport:

Trip Planner

Search our weather history database for the weather conditions in past years. The results will help you decide how hot, cold, wet, or windy it might be!

Date:

Astronomy

Mar. 25, 2014 Rise Set
Actual Time 6:20 AM MST 6:34 PM MST
Civil Twilight 5:57 AM MST 6:57 PM MST
Nautical Twilight 5:31 AM MST 7:23 PM MST
Astronomical Twilight 5:04 AM MST 7:50 PM MST
Moon 2:12 AM MST (3/25) 1:39 PM MST (3/25)
Length of Visible Light 12h 59m
Length of Day
12h 14m
Waning Crescent, 31% of the Moon is Illuminated
Mar 25
Waning Crescent
Mar 30
New
Apr 7
First Quarter
Apr 15
Full
Apr 22
Last Quarter

Hourly Weather History & Observations

Time (MST) Temp. Dew Point Humidity Pressure Visibility Wind Dir Wind Speed Gust Speed Precip Events Conditions
1:45 AM 71 °F 49 °F 35% 29.89 in 2 mi ESE 4.5 mph - -  
4:50 AM 66 °F 48 °F 42% 29.87 in 2 mi South 4.5 mph - -   Mostly Cloudy
6:04 AM 60.8 °F 48.2 °F 63% 29.90 in 10.0 mi South 9.2 mph - N/A   Partly Cloudy
7:41 AM 68.0 °F 42.8 °F 40% 29.92 in 10.0 mi South 9.2 mph - N/A   Clear
7:50 AM 72 °F 46 °F 28% 29.91 in 12 mi South 4.5 mph - -  
8:52 AM 75.2 °F 44.6 °F 34% 29.93 in 10.0 mi South 9.2 mph - N/A   Partly Cloudy
9:43 AM 86.0 °F 32.0 °F 14% 29.92 in 10.0 mi South 6.9 mph - N/A   Partly Cloudy
10:43 AM 89.6 °F 23.0 °F 9% 29.92 in 10.0 mi North 6.9 mph - N/A   Partly Cloudy
10:50 AM 95 °F 36 °F 6% 29.91 in 19 mi West 4.5 mph - -  
11:45 AM 91.4 °F 24.8 °F 9% 29.89 in 10.0 mi North 9.2 mph - N/A   Partly Cloudy
12:47 PM 93.2 °F 24.8 °F 9% 29.87 in 10.0 mi North 9.2 mph - N/A   Partly Cloudy
1:42 PM 93.2 °F 24.8 °F 9% 29.85 in 10.0 mi North 9.2 mph - N/A   Scattered Clouds
1:50 PM 96 °F 36 °F 6% 29.84 in 19 mi NNW 6.7 mph - -   Scattered Clouds
3:06 PM 93.2 °F 23.0 °F 8% 29.82 in 10.0 mi NNW 9.2 mph - N/A   Mostly Cloudy
3:46 PM 93.2 °F 24.8 °F 9% 29.81 in 10.0 mi North 9.2 mph - N/A   Mostly Cloudy
4:50 PM 94 °F 38 °F 7% 29.81 in 19 mi NW 6.7 mph - -   Clear
5:42 PM 87.8 °F 46.4 °F 24% 29.82 in 10.0 mi SW 6.9 mph - N/A   Scattered Clouds
6:40 PM 82.4 °F 48.2 °F 30% 29.84 in 10.0 mi South 6.9 mph - N/A   Scattered Clouds
7:50 PM 80 °F 54 °F 30% 29.85 in 2 mi South 8.9 mph - -  
7:57 PM 75.2 °F 50.0 °F 41% 29.87 in 10.0 mi South 13.8 mph - N/A   Scattered Clouds
8:50 PM 73.4 °F 51.8 °F 47% 29.88 in 10.0 mi South 11.5 mph - N/A   Scattered Clouds
9:42 PM 71.6 °F 53.6 °F 53% 29.91 in 10.0 mi South 11.5 mph - N/A   Partly Cloudy
10:41 PM 69.8 °F 55.4 °F 60% 29.91 in 10.0 mi South 11.5 mph - N/A   Partly Cloudy
10:45 PM 73 °F 58 °F 49% 29.87 in 2 mi South 8.9 mph - -